IRIDIUM 7

Satellite information

Favourite Embed

Satellite Type and Status

PAYLOADIN ORBIT

Key statistics

Satellite IRIDIUM 7 at a glance.

Uptime

10449

Days in orbit

Revolutions

≈ 14.4

Per day

Orbit

LEO

Low Earth Orbit

Inclination

86.4

Latest

Satellite identification and parameters

Extended collection of information and parameters for IRIDIUM 7.

Object identification

Identified? True

Debris? False

Object name: IRIDIUM 7

International designator: 1997-020B

Object number (NORAD): 24793

Object ID (CCSDS): 24793

Country: UNITED STATES OF AMERICA (US)

Current information (Y/N): Y

RCS size: LARGE

Orbital parameters

Period: 100.271 minutes

Inclination: 86.3954 deg

SMA: 7149.532 km

Apoapsis: 772.626 km

Periapsis: 770.168 km

RAAN: 102.2886 deg

Eccentricy: 0.00017194

Argument of periapsis: 98.4649 deg

Mean anomaly: 261.6743 deg

Mean motion: 14.36105481 rev/day

Mean motion (dot): 0.00000705 rev/day2

B* drag term: 0.00023552153 1/REarth

Two-line elements (TLE)

Creation date: Dec. 12, 2025, 10:14 a.m.

Reference frame: TEME

Reference center: EARTH

Epoch: Dec. 12, 2025, 6:48 a.m. UTC

TLE line 0: 0 IRIDIUM 7

TLE line 1: 1 24793U 97020B 25346.28363852 .00000705 00000-0 23552-3 0 9992

TLE line 2: 2 24793 86.3954 102.2886 0001719 98.4649 261.6743 14.36105481497458

Live tracking on map

Real-time ground track for satellite IRIDIUM 7.

In-orbit conjunctions

There are no conjunctions computed for IRIDIUM 7, at the moment. Check back to stay up to date, as we update our databases every day.

Go to all conjunctions

Associated space launch

Iridium provides global mobile telecommunications services using a constellation of 66 low earth orbit satellites in a 86.4° inclined orbit. Although 77 satellites were originally envisioned for the system and spawned the name based on the 77th element in the periodic table, the system has been scaled back. Motorola's Satellite Communications Group designed and manufactured the Iridium satellites with Lockheed Martin providing the LM-700A spacecraft buses.

IRIDIUM 7 was lifted into orbit during the mission ‘Delta II | Iridium 04 to 08’, on board a Delta II space rocket.

The launch took place on May 5, 1997, 2:55 p.m. from Space Launch Complex 2W.

For more information about the launch, click the button.

Launch to space Delta II | Iridium 04 to 08
Delta II | Iridium 04 to 08

Agency: N/A

Status: Launch Successful

Launch date: May 5, 1997, 2:55 p.m. UTC

Rocket: Delta II

Launch pad: Space Launch Complex 2W

Location: Vandenberg SFB, CA, USA

...

Latest news about this satellite

There are no fresh news available about this satellite. Check back as we update our databases every day.


Newsletter sign-up

Weekly statistics, charts and insights to help you stay on top of the space industry.